Time,TemperatureF,DewpointF,PressureIn,WindDirection,WindDirectionDegrees,WindSpeedMPH,WindSpeedGustMPH,Humidity,HourlyPrecipIn,Conditions,Clouds,dailyrainin,SoftwareType,DateUTC
2013-01-07 00:02:00,23.0,16.0,29.97,SE,140,15.0,21.0,73,-99.99,,,-99.99,,2013-01-07 06:02:00,
2013-01-07 00:12:00,25.0,18.0,29.96,SE,140,10.0,15.0,73,-99.99,,,-99.99,,2013-01-07 06:12:00,
2013-01-07 00:22:00,25.0,18.0,29.96,SE,140,10.0,15.0,73,-99.99,,,-99.99,,2013-01-07 06:22:00,
2013-01-07 00:32:00,25.0,18.0,29.94,SE,140,12.0,17.0,73,-99.99,,,-99.99,,2013-01-07 06:32:00,
2013-01-07 00:42:00,25.0,18.0,29.94,SE,140,12.0,17.0,73,-99.99,,,-99.99,,2013-01-07 06:42:00,
2013-01-07 00:52:00,25.0,18.0,29.94,SE,140,9.0,-999.0,73,-99.99,,,-99.99,,2013-01-07 06:52:00,
2013-01-07 01:02:00,25.0,18.0,29.94,SE,140,9.0,-999.0,73,-99.99,,,-99.99,,2013-01-07 07:02:00,
2013-01-07 01:12:00,25.0,18.0,29.94,SSE,160,12.0,-999.0,73,-99.99,,,-99.99,,2013-01-07 07:12:00,
2013-01-07 01:22:00,25.0,18.0,29.94,SSE,160,12.0,-999.0,73,-99.99,,,-99.99,,2013-01-07 07:22:00,
2013-01-07 01:33:00,27.0,19.0,29.95,North,-99,7.0,-999.0,73,-99.99,,,-99.99,,2013-01-07 07:33:00,
2013-01-07 01:42:00,27.0,19.0,29.95,North,-99,7.0,-999.0,73,-99.99,,,-99.99,,2013-01-07 07:42:00,
2013-01-07 01:52:00,27.0,19.0,29.95,North,0,0.0,-999.0,73,-99.99,,,-99.99,,2013-01-07 07:52:00,
2013-01-07 02:03:00,27.0,19.0,29.95,North,0,0.0,-999.0,73,-99.99,,,-99.99,,2013-01-07 08:03:00,
2013-01-07 02:12:00,27.0,19.0,29.94,South,170,12.0,16.0,73,-99.99,,,-99.99,,2013-01-07 08:12:00,
2013-01-07 02:22:00,27.0,19.0,29.94,South,170,12.0,16.0,73,-99.99,,,-99.99,,2013-01-07 08:22:00,
2013-01-07 02:32:00,27.0,19.0,29.95,South,190,6.0,-999.0,73,-99.99,,,-99.99,,2013-01-07 08:32:00,
2013-01-07 02:42:00,27.0,19.0,29.95,South,190,6.0,-999.0,73,-99.99,,,-99.99,,2013-01-07 08:42:00,
2013-01-07 02:52:00,27.0,19.0,29.95,SSW,200,5.0,-999.0,73,-99.99,,,-99.99,,2013-01-07 08:52:00,
2013-01-07 03:02:00,27.0,19.0,29.95,SSW,200,5.0,-999.0,73,-99.99,,,-99.99,,2013-01-07 09:02:00,
2013-01-07 03:12:00,27.0,19.0,29.94,South,180,12.0,20.0,73,-99.99,,,-99.99,,2013-01-07 09:12:00,
2013-01-07 03:22:00,27.0,19.0,29.94,South,180,12.0,20.0,73,-99.99,,,-99.99,,2013-01-07 09:22:00,
2013-01-07 03:32:00,27.0,19.0,29.94,SSW,200,12.0,-999.0,73,-99.99,,,-99.99,,2013-01-07 09:32:00,
2013-01-07 03:42:00,27.0,19.0,29.94,SSW,200,12.0,-999.0,73,-99.99,,,-99.99,,2013-01-07 09:42:00,
2013-01-07 03:52:00,27.0,21.0,29.93,SSW,200,12.0,-999.0,79,-99.99,,,-99.99,,2013-01-07 09:52:00,
2013-01-07 04:02:00,27.0,21.0,29.93,SSW,200,12.0,-999.0,79,-99.99,,,-99.99,,2013-01-07 10:02:00,
2013-01-07 04:12:00,27.0,19.0,29.93,South,190,7.0,-999.0,73,-99.99,,,-99.99,,2013-01-07 10:12:00,
2013-01-07 04:22:00,27.0,19.0,29.93,South,190,7.0,-999.0,73,-99.99,,,-99.99,,2013-01-07 10:22:00,
2013-01-07 04:32:00,27.0,19.0,29.92,SSW,200,7.0,-999.0,73,-99.99,,,-99.99,,2013-01-07 10:32:00,
2013-01-07 04:42:00,27.0,19.0,29.92,SSW,200,7.0,-999.0,73,-99.99,,,-99.99,,2013-01-07 10:42:00,
2013-01-07 04:52:00,27.0,19.0,29.91,SSW,200,6.0,-999.0,73,-99.99,,,-99.99,,2013-01-07 10:52:00,
2013-01-07 05:02:00,27.0,19.0,29.91,SSW,200,6.0,-999.0,73,-99.99,,,-99.99,,2013-01-07 11:02:00,
2013-01-07 05:12:00,27.0,19.0,29.91,SSW,200,6.0,-999.0,73,-99.99,,,-99.99,,2013-01-07 11:12:00,
2013-01-07 05:22:00,27.0,19.0,29.91,SSW,200,6.0,-999.0,73,-99.99,,,-99.99,,2013-01-07 11:22:00,
2013-01-07 05:32:00,25.0,19.0,29.92,South,180,5.0,-999.0,79,-99.99,,,-99.99,,2013-01-07 11:32:00,
2013-01-07 05:43:00,25.0,19.0,29.92,South,180,5.0,-999.0,79,-99.99,,,-99.99,,2013-01-07 11:43:00,
2013-01-07 05:53:00,25.0,19.0,29.93,SSW,210,5.0,-999.0,79,-99.99,,,-99.99,,2013-01-07 11:53:00,
2013-01-07 06:03:00,25.0,19.0,29.93,SSW,210,5.0,-999.0,79,-99.99,,,-99.99,,2013-01-07 12:03:00,
2013-01-07 06:12:00,25.0,19.0,29.93,South,190,6.0,-999.0,79,-99.99,,,-99.99,,2013-01-07 12:12:00,
2013-01-07 06:22:00,25.0,19.0,29.93,South,190,6.0,-999.0,79,-99.99,,,-99.99,,2013-01-07 12:22:00,
2013-01-07 06:33:00,25.0,19.0,29.93,North,0,0.0,-999.0,79,-99.99,,,-99.99,,2013-01-07 12:33:00,
2013-01-07 06:43:00,25.0,19.0,29.93,North,0,0.0,-999.0,79,-99.99,,,-99.99,,2013-01-07 12:43:00,
2013-01-07 06:52:00,25.0,19.0,29.93,North,0,0.0,-999.0,79,-99.99,,,-99.99,,2013-01-07 12:52:00,
2013-01-07 07:02:00,25.0,19.0,29.93,North,0,0.0,-999.0,79,-99.99,,,-99.99,,2013-01-07 13:02:00,
2013-01-07 07:12:00,23.0,18.0,29.93,North,0,0.0,-999.0,79,-99.99,,,-99.99,,2013-01-07 13:12:00,
2013-01-07 07:23:00,23.0,18.0,29.93,North,0,0.0,-999.0,79,-99.99,,,-99.99,,2013-01-07 13:23:00,
2013-01-07 07:33:00,23.0,19.0,29.94,North,0,0.0,-999.0,85,-99.99,,,-99.99,,2013-01-07 13:33:00,
2013-01-07 07:42:00,23.0,19.0,29.94,North,0,0.0,-999.0,85,-99.99,,,-99.99,,2013-01-07 13:42:00,
2013-01-07 07:52:00,21.0,18.0,29.94,South,170,5.0,-999.0,85,-99.99,,,-99.99,,2013-01-07 13:52:00,
2013-01-07 08:03:00,21.0,18.0,29.94,South,170,5.0,-999.0,85,-99.99,,,-99.99,,2013-01-07 14:03:00,
2013-01-07 08:12:00,21.0,18.0,29.94,South,170,5.0,-999.0,85,-99.99,,,-99.99,,2013-01-07 14:12:00,
2013-01-07 08:22:00,21.0,18.0,29.94,North,0,0.0,-999.0,85,-99.99,,,-99.99,,2013-01-07 14:22:00,
2013-01-07 08:33:00,21.0,18.0,29.96,North,0,0.0,-999.0,85,-99.99,,,-99.99,,2013-01-07 14:33:00,
2013-01-07 08:42:00,21.0,18.0,29.96,North,0,0.0,-999.0,85,-99.99,,,-99.99,,2013-01-07 14:42:00,
2013-01-07 08:53:00,19.0,14.0,29.97,North,0,0.0,-999.0,79,-99.99,,,-99.99,,2013-01-07 14:53:00,
2013-01-07 09:03:00,19.0,14.0,29.97,North,0,0.0,-999.0,79,-99.99,,,-99.99,,2013-01-07 15:03:00,
2013-01-07 09:12:00,19.0,16.0,29.97,North,0,0.0,-999.0,85,-99.99,,,-99.99,,2013-01-07 15:12:00,
2013-01-07 09:22:00,19.0,16.0,29.97,North,0,0.0,-999.0,85,-99.99,,,-99.99,,2013-01-07 15:22:00,
2013-01-07 09:33:00,23.0,19.0,29.97,North,0,0.0,-999.0,85,-99.99,,,-99.99,,2013-01-07 15:33:00,
2013-01-07 09:43:00,23.0,19.0,29.97,North,0,0.0,-999.0,85,-99.99,,,-99.99,,2013-01-07 15:43:00,
2013-01-07 09:53:00,27.0,21.0,29.99,North,0,0.0,-999.0,79,-99.99,,,-99.99,,2013-01-07 15:53:00,
2013-01-07 10:02:00,27.0,21.0,29.99,North,0,0.0,-999.0,79,-99.99,,,-99.99,,2013-01-07 16:02:00,
2013-01-07 10:12:00,25.0,19.0,29.99,North,0,0.0,-999.0,79,-99.99,,,-99.99,,2013-01-07 16:12:00,
2013-01-07 10:22:00,25.0,19.0,29.99,North,0,0.0,-999.0,79,-99.99,,,-99.99,,2013-01-07 16:22:00,
2013-01-07 10:33:00,27.0,21.0,30.00,North,0,0.0,-999.0,79,-99.99,,,-99.99,,2013-01-07 16:33:00,
2013-01-07 10:43:00,27.0,21.0,30.00,North,0,0.0,-999.0,79,-99.99,,,-99.99,,2013-01-07 16:43:00,
2013-01-07 10:53:00,30.0,25.0,30.01,West,260,6.0,-999.0,80,-99.99,,,-99.99,,2013-01-07 16:53:00,
2013-01-07 11:02:00,30.0,25.0,30.01,West,260,6.0,-999.0,80,-99.99,,,-99.99,,2013-01-07 17:02:00,
2013-01-07 11:12:00,30.0,23.0,30.00,WSW,250,8.0,-999.0,74,-99.99,,,-99.99,,2013-01-07 17:12:00,
2013-01-07 11:23:00,30.0,23.0,30.00,WSW,250,8.0,-999.0,74,-99.99,,,-99.99,,2013-01-07 17:23:00,
2013-01-07 11:33:00,30.0,25.0,30.00,West,270,7.0,-999.0,80,-99.99,,,-99.99,,2013-01-07 17:33:00,
2013-01-07 11:42:00,30.0,25.0,30.00,West,270,7.0,-999.0,80,-99.99,,,-99.99,,2013-01-07 17:42:00,
2013-01-07 11:53:00,30.0,25.0,29.99,West,270,6.0,-999.0,80,-99.99,,,-99.99,,2013-01-07 17:53:00,
2013-01-07 12:03:00,30.0,25.0,29.99,West,270,6.0,-999.0,80,-99.99,,,-99.99,,2013-01-07 18:03:00,
2013-01-07 12:12:00,30.0,25.0,29.99,West,280,5.0,-999.0,80,-99.99,,,-99.99,,2013-01-07 18:12:00,
2013-01-07 12:23:00,30.0,25.0,29.99,West,280,5.0,-999.0,80,-99.99,,,-99.99,,2013-01-07 18:23:00,
2013-01-07 12:32:00,30.0,23.0,29.98,West,270,6.0,-999.0,74,-99.99,,,-99.99,,2013-01-07 18:32:00,
2013-01-07 12:42:00,30.0,23.0,29.98,West,270,6.0,-999.0,74,-99.99,,,-99.99,,2013-01-07 18:42:00,
2013-01-07 12:52:00,30.0,25.0,29.98,West,280,5.0,-999.0,80,-99.99,,,-99.99,,2013-01-07 18:52:00,
2013-01-07 13:03:00,30.0,25.0,29.98,West,280,5.0,-999.0,80,-99.99,,,-99.99,,2013-01-07 19:03:00,
2013-01-07 13:12:00,30.0,25.0,29.97,North,0,0.0,-999.0,80,-99.99,,,-99.99,,2013-01-07 19:12:00,
2013-01-07 13:22:00,30.0,25.0,29.97,North,0,0.0,-999.0,80,-99.99,,,-99.99,,2013-01-07 19:22:00,
2013-01-07 13:33:00,32.0,25.0,29.97,West,280,5.0,-999.0,74,-99.99,,,-99.99,,2013-01-07 19:33:00,
2013-01-07 13:42:00,32.0,25.0,29.97,West,280,5.0,-999.0,74,-99.99,,,-99.99,,2013-01-07 19:42:00,
2013-01-07 13:52:00,34.0,25.0,29.96,North,0,0.0,-999.0,69,-99.99,,,-99.99,,2013-01-07 19:52:00,
2013-01-07 14:03:00,34.0,25.0,29.96,North,0,0.0,-999.0,69,-99.99,,,-99.99,,2013-01-07 20:03:00,
2013-01-07 14:12:00,34.0,25.0,29.96,North,0,0.0,-999.0,69,-99.99,,,-99.99,,2013-01-07 20:12:00,
2013-01-07 14:23:00,34.0,25.0,29.96,North,0,0.0,-999.0,69,-99.99,,,-99.99,,2013-01-07 20:23:00,
2013-01-07 14:33:00,36.0,27.0,29.97,West,270,5.0,-999.0,69,-99.99,,,-99.99,,2013-01-07 20:33:00,
2013-01-07 14:42:00,36.0,27.0,29.97,West,270,5.0,-999.0,69,-99.99,,,-99.99,,2013-01-07 20:42:00,
2013-01-07 14:52:00,36.0,27.0,29.97,North,0,0.0,-999.0,69,-99.99,,,-99.99,,2013-01-07 20:52:00,
2013-01-07 15:03:00,36.0,27.0,29.97,North,0,0.0,-999.0,69,-99.99,,,-99.99,,2013-01-07 21:03:00,
2013-01-07 15:12:00,36.0,27.0,29.98,SSW,200,6.0,-999.0,69,-99.99,,,-99.99,,2013-01-07 21:12:00,
2013-01-07 15:23:00,36.0,27.0,29.98,SSW,200,6.0,-999.0,69,-99.99,,,-99.99,,2013-01-07 21:23:00,
2013-01-07 15:33:00,34.0,27.0,29.98,SW,230,6.0,-999.0,74,-99.99,,,-99.99,,2013-01-07 21:33:00,
2013-01-07 15:43:00,34.0,27.0,29.98,SW,230,6.0,-999.0,74,-99.99,,,-99.99,,2013-01-07 21:43:00,
2013-01-07 15:52:00,34.0,25.0,29.99,SSW,210,8.0,-999.0,69,-99.99,,,-99.99,,2013-01-07 21:52:00,
2013-01-07 16:02:00,34.0,25.0,29.99,SSW,210,8.0,-999.0,69,-99.99,,,-99.99,,2013-01-07 22:02:00,
2013-01-07 16:12:00,34.0,25.0,29.99,SW,220,5.0,-999.0,69,-99.99,,,-99.99,,2013-01-07 22:12:00,
2013-01-07 16:22:00,34.0,25.0,29.99,SW,220,5.0,-999.0,69,-99.99,,,-99.99,,2013-01-07 22:22:00,
2013-01-07 16:33:00,34.0,25.0,29.99,North,0,0.0,-999.0,69,-99.99,,,-99.99,,2013-01-07 22:33:00,
2013-01-07 16:42:00,34.0,25.0,29.99,North,0,0.0,-999.0,69,-99.99,,,-99.99,,2013-01-07 22:42:00,
2013-01-07 16:52:00,34.0,25.0,29.99,North,0,0.0,-999.0,69,-99.99,,,-99.99,,2013-01-07 22:52:00,
2013-01-07 17:02:00,34.0,25.0,29.99,North,0,0.0,-999.0,69,-99.99,,,-99.99,,2013-01-07 23:02:00,
2013-01-07 17:12:00,30.0,25.0,29.99,North,0,0.0,-999.0,80,-99.99,,,-99.99,,2013-01-07 23:12:00,
2013-01-07 17:22:00,30.0,25.0,29.99,North,0,0.0,-999.0,80,-99.99,,,-99.99,,2013-01-07 23:22:00,
2013-01-07 17:33:00,30.0,25.0,29.99,North,0,0.0,-999.0,80,-99.99,,,-99.99,,2013-01-07 23:33:00,
2013-01-07 17:42:00,30.0,25.0,29.99,North,0,0.0,-999.0,80,-99.99,,,-99.99,,2013-01-07 23:42:00,
2013-01-07 17:52:00,28.0,21.0,29.99,North,0,0.0,-999.0,74,-99.99,,,-99.99,,2013-01-07 23:52:00,
2013-01-07 18:02:00,28.0,21.0,29.99,North,0,0.0,-999.0,74,-99.99,,,-99.99,,2013-01-08 00:02:00,
2013-01-07 18:12:00,25.0,21.0,30.00,North,0,0.0,-999.0,85,-99.99,,,-99.99,,2013-01-08 00:12:00,
2013-01-07 18:22:00,25.0,21.0,30.00,North,0,0.0,-999.0,85,-99.99,,,-99.99,,2013-01-08 00:22:00,
2013-01-07 18:33:00,21.0,18.0,29.99,North,0,0.0,-999.0,85,-99.99,,,-99.99,,2013-01-08 00:33:00,
2013-01-07 18:42:00,21.0,18.0,29.99,North,0,0.0,-999.0,85,-99.99,,,-99.99,,2013-01-08 00:42:00,
2013-01-07 18:52:00,21.0,18.0,30.00,North,0,0.0,-999.0,85,-99.99,,,-99.99,,2013-01-08 00:52:00,
2013-01-07 19:02:00,21.0,18.0,30.00,North,0,0.0,-999.0,85,-99.99,,,-99.99,,2013-01-08 01:02:00,
2013-01-07 19:12:00,19.0,16.0,30.00,North,0,0.0,-999.0,85,-99.99,,,-99.99,,2013-01-08 01:12:00,
2013-01-07 19:22:00,19.0,16.0,30.00,North,0,0.0,-999.0,85,-99.99,,,-99.99,,2013-01-08 01:22:00,
2013-01-07 19:33:00,18.0,16.0,30.00,North,0,0.0,-999.0,92,-99.99,,,-99.99,,2013-01-08 01:33:00,
2013-01-07 19:42:00,18.0,16.0,30.00,North,0,0.0,-999.0,92,-99.99,,,-99.99,,2013-01-08 01:42:00,
2013-01-07 19:52:00,21.0,19.0,29.99,North,0,0.0,-999.0,92,-99.99,,,-99.99,,2013-01-08 01:52:00,
2013-01-07 20:02:00,21.0,19.0,29.99,North,0,0.0,-999.0,92,-99.99,,,-99.99,,2013-01-08 02:02:00,
2013-01-07 20:12:00,18.0,14.0,29.99,North,0,0.0,-999.0,85,-99.99,,,-99.99,,2013-01-08 02:12:00,
2013-01-07 20:22:00,18.0,14.0,29.99,North,0,0.0,-999.0,85,-99.99,,,-99.99,,2013-01-08 02:22:00,
2013-01-07 20:32:00,16.0,12.0,29.99,North,0,0.0,-999.0,85,-99.99,,,-99.99,,2013-01-08 02:32:00,
2013-01-07 20:42:00,16.0,12.0,29.99,North,0,0.0,-999.0,85,-99.99,,,-99.99,,2013-01-08 02:42:00,
2013-01-07 20:53:00,16.0,12.0,29.99,North,0,0.0,-999.0,85,-99.99,,,-99.99,,2013-01-08 02:53:00,
2013-01-07 21:03:00,16.0,12.0,29.99,North,0,0.0,-999.0,85,-99.99,,,-99.99,,2013-01-08 03:03:00,
2013-01-07 21:12:00,16.0,12.0,29.98,North,0,0.0,-999.0,85,-99.99,,,-99.99,,2013-01-08 03:12:00,
2013-01-07 21:22:00,16.0,12.0,29.98,North,0,0.0,-999.0,85,-99.99,,,-99.99,,2013-01-08 03:22:00,
2013-01-07 21:32:00,14.0,10.0,29.98,North,0,0.0,-999.0,85,-99.99,,,-99.99,,2013-01-08 03:32:00,
2013-01-07 21:43:00,14.0,10.0,29.98,North,0,0.0,-999.0,85,-99.99,,,-99.99,,2013-01-08 03:43:00,
2013-01-07 21:52:00,16.0,12.0,29.98,North,0,0.0,-999.0,85,-99.99,,,-99.99,,2013-01-08 03:52:00,
2013-01-07 22:02:00,16.0,12.0,29.98,North,0,0.0,-999.0,85,-99.99,,,-99.99,,2013-01-08 04:02:00,
2013-01-07 22:12:00,12.0,10.0,29.98,North,0,0.0,-999.0,92,-99.99,,,-99.99,,2013-01-08 04:12:00,
2013-01-07 22:22:00,12.0,10.0,29.98,North,0,0.0,-999.0,92,-99.99,,,-99.99,,2013-01-08 04:22:00,
2013-01-07 22:32:00,12.0,9.0,29.98,North,0,0.0,-999.0,85,-99.99,,,-99.99,,2013-01-08 04:32:00,
2013-01-07 22:42:00,12.0,9.0,29.98,North,0,0.0,-999.0,85,-99.99,,,-99.99,,2013-01-08 04:42:00,
2013-01-07 22:52:00,12.0,9.0,29.98,North,0,0.0,-999.0,85,-99.99,,,-99.99,,2013-01-08 04:52:00,
2013-01-07 23:03:00,12.0,9.0,29.98,North,0,0.0,-999.0,85,-99.99,,,-99.99,,2013-01-08 05:03:00,
2013-01-07 23:12:00,10.0,7.0,29.97,North,0,0.0,-999.0,85,-99.99,,,-99.99,,2013-01-08 05:12:00,
2013-01-07 23:22:00,10.0,7.0,29.97,North,0,0.0,-999.0,85,-99.99,,,-99.99,,2013-01-08 05:22:00,
2013-01-07 23:33:00,10.0,9.0,29.97,North,0,0.0,-999.0,92,-99.99,,,-99.99,,2013-01-08 05:33:00,
2013-01-07 23:42:00,10.0,9.0,29.97,North,0,0.0,-999.0,92,-99.99,,,-99.99,,2013-01-08 05:42:00,
2013-01-07 23:53:00,10.0,9.0,29.97,North,0,0.0,-999.0,92,-99.99,,,-99.99,,2013-01-08 05:53:00,